SCOUT A DEB, 2778

Orbit data source: Space-Track

SCOUT A DEB, 2778 is space debris in LEO originally from a launch on Fri, 14 Apr 1967 UTC launched from the Air Force Western Test Range (AFWTR). Debris objects in space refer to the collection of defunct objects orbiting the Earth. Examples of debris include non-operational satellites, rocket bodies, and fragments generated from explosions, collisions, or faulty payload assembly.

Loading next visibility...
Identifier
2778, 1967-034D
Orbit
LEO
Country
Flag of USUS
Related business
Manufacturer
Unknown
Mission
Spacecraft
Bus & Motor
Unknown
Mass
Unknown
Launch date (UTC)
1967-04-14 (59 years ago)
Launch vehicle
Unknown
Launch site
Air Force Western Test Range (AFWTR)
Object type
Payload
Rocket body
Debris
Shape & HBR
Unknown shape, 0.1 m
Radar Cross Section
Small (<0.1 m²)

Expand to show TLE details & history
Last TLE update: 1 day ago

TLE from 1 day ago
0 SCOUT A DEB
1 02778U 67034D   26036.74603670  .00000361  00000-0  66693-3 0  9997
2 02778  89.8435  39.4666 0123496   6.5006  55.1705 13.35234269855615
Epoch: 2026-02-05T17:54Z
TLE epoch observation values (Epoch: 2026-02-05T17:54:17.570Z)
Latitude
62.92818°
Longitude
-4.69583°
Altitude
1,085.808 km
Speed
7.34 km/s
True Right ascension
02h 39m 05s
True Declination
62° 47' 41"
Sunlit
Object was in daylight at epoch
Visualization orbit readout
Latitude
Unknown
Longitude
Unknown
Altitude
Unknown
Speed
Unknown
Apparent Right ascension
Unknown
Apparent Declination
Unknown
Sunlit
N/A
Visualization observer readout
Local Sidereal Time
02:42:10
Azimuth
Unknown
Elevation
Unknown
Doppler factor
Unknown
Orbital elements
Apogee altitude
1,216.806 km
Perigee altitude
1,031.505 km
Semi-major axis
7,502.293 km
Eccentricity
0.01235
Inclination
89.8435°
RAAN
39.4666°
Arg. of periapsis
6.5006°
True anomaly
56.34239°
Mean anomaly
55.1705°
Eccentric anomaly
55.75542°
Mean motion
3.34004 °/min
Orbital period
107.78 mins
BSTAR
0.00066693
Loading maneuver chart data...
Computing Atmospheric mass density...
Loading historical data...
Loading historical data...
Loading historical data...
Loading historical data...
Loading historical data...
Loading historical data...
Loading historical data...

Documentation

Showing up to 5 results
|